Location: Newark
(11.4947°N, 0.1467°E)
Time: 02:08:31
(UTC+00:00)

Envisat - Pass Details

Date: 14 November 2019
Orbit: 764 x 766 km, 98.1° (Epoch: 15 December)

Event Time Altitude Azimuth Distance (km) Brightness Sun altitude
Rises 18:31:18 0° 174° (S) 3,222 6.4 -14.7°
Reaches altitude 10° 18:33:37 10° 177° (S) 2,297 5.6 -15.2°
Maximum altitude 18:38:38 65° 258° (WSW) 837 3.4 -16.4°
Drops below altitude 10° 18:43:39 10° 340° (NNW) 2,296 5.5 -17.6°
Sets 18:45:58 0° 343° (NNW) 3,222 6.3 -18.2°
